Flag for India Weather past 2 weeks in Navi Mumbai, Maharashtra, India

Now
82 °F

Haze.


Feels Like: 89 °F
Forecast: 80 / 107 °F
Wind: 3 mph from East

Location: Bombay / Santacruz


UV Index: 10 (Very high)

Visibility: 2 mi


Pressure: 29.74 "Hg

Humidity: 79%

Dew point: 75 °F

Location of Navi MumbaiLocation

Historic Weather in Navi Mumbai

°F

Navi Mumbai temperature yesterday

Maximum temperature yesterday: 90 °F (at 10:40 AM)
Minimum temperature yesterday: 81 °F (at 12:40 AM)
Average temperature yesterday: 84 °F

Past Weeks' High & Low Weather Summary

 TemperatureHumidityPressure
High90 °F (Apr 20, 10:40 AM)89% (Apr 6, 6:40 AM)29.98 "Hg (Apr 6, 6:40 AM)
Low75 °F (Apr 13, 6:40 AM)40% (Apr 10, 1:40 PM)29.71 "Hg (Apr 20, 3:40 PM)
Average82 °F70%29.85 "Hg
* Reported Apr 6 4:40 AM — Apr 21 4:40 AM, Navi Mumbai, Weather by CustomWeather, © 2014

Note: Actual official high and low records may vary slightly from our data, if they occured in-between our weather recording intervals... More about our weather records

Advertising

Historic Weather Conditions — Data for Previous 24 hours

 ConditionsComfort  
Time TempWeatherWind HumidityBarometerVisibility
4:40 AM
Apr 21
82 °FHaze.3 mph79%29.74 "Hg2 mi
3:40 AM82 °FHaze.7 mph84%29.74 "Hg2 mi
2:40 AM82 °FHaze.5 mph84%29.74 "Hg2 mi
1:40 AM82 °FPassing clouds.8 mph84%29.77 "Hg2 mi
12:40 AM82 °FPassing clouds.7 mph84%29.80 "Hg2 mi
11:40 PM
Apr 20
82 °FHaze.7 mph84%29.80 "Hg2 mi
10:40 PM82 °FHaze.7 mph84%29.80 "Hg2 mi
9:40 PM84 °FPassing clouds.7 mph79%29.80 "Hg2 mi
8:40 PM84 °FFog.6 mph79%29.77 "Hg2 mi
7:40 PM84 °FPassing clouds.5 mph79%29.77 "Hg2 mi
6:40 PM84 °FHaze.9 mph70%29.74 "Hg2 mi
5:40 PM86 °FHaze.8 mph70%29.71 "Hg3 mi
4:40 PM88 °FHaze.8 mph62%29.71 "Hg3 mi
3:40 PM90 °FHaze.9 mph55%29.71 "Hg3 mi
2:40 PM90 °FHaze.9 mph67%29.74 "Hg3 mi
1:40 PM90 °FHaze.8 mph67%29.77 "Hg3 mi
10:40 AM90 °FHaze.3 mph55%29.83 "Hg2 mi
9:40 AM88 °FHaze.3 mph66%29.86 "Hg2 mi
8:40 AM84 °FHaze.9 mph74%29.83 "Hg2 mi
7:40 AM82 °FClear.No wind79%29.83 "Hg2 mi
6:40 AM81 °FPassing clouds.3 mph79%29.80 "Hg2 mi
Weather by CustomWeather, © 2014

See weather overview